Location: Arlington
(40.6323°N, 74.1651°W)
Time: 02:21:12
(UTC+00:00)

IRS-1C Rocket - Pass Details

Date: 22 November 2019
Orbit: 800 x 806 km, 99.0° (Epoch: 08 December)

Event Time Altitude Azimuth Distance (km) Brightness Sun altitude
Rises 22:09:45 0° 162° (SSE) 3,306 7.3 -7.0°
Reaches altitude 10° 22:12:04 10° 161° (SSE) 2,379 6.6 -7.5°
Maximum altitude 22:17:20 83° 75° (ENE) 817 4.1 -8.4°
Drops below altitude 10° 22:22:38 10° 348° (NNW) 2,393 6.5 -9.3°
Sets 22:24:59 0° 348° (NNW) 3,327 7.2 -9.8°
